Overview Statistics Trail Chart Weather Telemetry Raw packets
 

This is the latest recevied weather packets stored in our database for station/object SV9TNF-55. If no packets are shown the sender has not sent any weather packets the latest 10 day(s).

<< 24 25 26 27 28 29 30 >>
Time Temp. Humidity Pressure Rain* Wind** Luminosity Snow
1788295649 20° C 51% 1015.1 hPa 0 mm 0.45 m/s, 292° - -
1788295049 20° C 51% 1015.1 hPa 0 mm 0.45 m/s, 292° - -
1788294449 20° C 51% 1015.1 hPa 0 mm 0.45 m/s, 292° - -
1788293849 20° C 51% 1015.1 hPa 0 mm 0.45 m/s, 292° - -
1788293249 20° C 51% 1015.1 hPa 0 mm 0.45 m/s, 292° - -
1788292648 20° C 51% 1015.1 hPa 0 mm 0.45 m/s, 292° - -
1788292049 20° C 51% 1015.1 hPa 0 mm 0.45 m/s, 292° - -
1788291448 20° C 51% 1015.1 hPa 0 mm 0.45 m/s, 292° - -
1788290848 18.89° C 53% 1015 hPa 0 mm 0.45 m/s, 360° - -
1788290249 19.44° C 53% 1014.9 hPa 0 mm 0.89 m/s, 292° - -
1788289648 20° C 50% 1014.7 hPa 0 mm 0.45 m/s, 225° - -
1788289048 20.56° C 49% 1014.6 hPa 0 mm 0.45 m/s, 157° - -
1788288448 20.56° C 51% 1014.5 hPa 0 mm 0.89 m/s, 315° - -
1788287848 20.56° C 51% 1014.5 hPa 0 mm 0.89 m/s, 315° - -
1788287248 20° C 46% 1014.2 hPa 0 mm 0.89 m/s, 292° - -
1788286647 19.44° C 52% 1014.1 hPa 0 mm 0.45 m/s, 315° - -
1788286047 19.44° C 58% 1013.9 hPa 0 mm 0.45 m/s, 315° - -
1788285447 20° C 58% 1013.7 hPa 0 mm 0.45 m/s, 315° - -
1788284848 20° C 58% 1013.7 hPa 0 mm 0.45 m/s, 315° - -
1788284247 19.44° C 63% 1013.7 hPa 0 mm 0.89 m/s, 315° - -
1788283647 20° C 63% 1013.7 hPa 0 mm 0.45 m/s, 22° - -
1788283048 19.44° C 72% 1013.4 hPa 0 mm 1.34 m/s, 292° - -
1788282447 19.44° C 72% 1013.4 hPa 0 mm 1.34 m/s, 292° - -
1788281847 20° C 71% 1013.4 hPa 0 mm 0.89 m/s, 292° - -
1788281246 24.44° C 45% 1013.9 hPa 0 mm 3.58 m/s, 337° - -

* Rain latest hour (hover to see other rain measurements)
** Current wind speed in m/s (hover to see current wind gust speed)